STARLINK-11151, 60049

Orbit data source: Space-Track

STARLINK-11151, 60049 is a payload satellite owned by SpaceX/Seattle (US) in LEO that was launched on Sat, 08 Jun 2024 UTC via an FALCON 9 launch vehicle from the Air Force Western Test Range (AFWTR). Payload-class satellites include a variety of spacecraft equipped with specific instruments for various scientific and technological missions. These include communications satellites like Starlink; space stations such as the ISS; scientific satellites like the Hubble; Earth observation satellites from companies like Planet Labs, Umbra, and HawkEye 360; GPS; miniature CubeSats for education and research; and military/defense satellites.

Loading next visibility...
Identifier
60049, 2024-112M
Orbit
LEO
Country
Flag of USUS
Related business
Manufacturer
SpaceX/Seattle
Mission
Operational Commercial Communications
Bus & Motor
STARLINK V2MD, Unknown motor
Mass
960 kg wet, ~910 kg dry
Launch date (UTC)
2024-06-08 (2 years ago)
Launch vehicle
FALCON 9
Launch site
Air Force Western Test Range (AFWTR)
Object type
Payload
Rocket body
Debris
Shape & HBR
Box + 2 Pan, 18.1 m
Radar Cross Section
36.964 m², Large (>1 m²)

Expand to show TLE details & history
Last TLE update: 1 day ago

TLE from 1 day ago
0 STARLINK-11151
1 60049U 24112M   26170.87519380  .00001625  00000-0  18256-4 0  9996
2 60049  53.1594 122.2928 0000986  87.2868 272.8263 15.69720667117037
Epoch: 2026-06-19T21:00Z
TLE epoch observation values (Epoch: 2026-06-19T21:00:16.744Z)
Latitude
0.00001°
Longitude
-100.87486°
Altitude
360.579 km
Speed
7.694 km/s
True Right ascension
08h 09m 10s
True Declination
0° 00' 00"
Sunlit
Object was in daylight at epoch
Visualization orbit readout
Latitude
Unknown
Longitude
Unknown
Altitude
Unknown
Speed
Unknown
Apparent Right ascension
Unknown
Apparent Declination
Unknown
Sunlit
N/A
Visualization observer readout
Local Sidereal Time
08:33:47
Azimuth
Unknown
Elevation
Unknown
Doppler factor
Unknown
Orbital elements
Apogee altitude
360.621 km
Perigee altitude
359.293 km
Semi-major axis
6,738.094 km
Eccentricity
0.0001
Inclination
53.1594°
RAAN
122.2928°
Arg. of periapsis
87.2868°
True anomaly
272.81501°
Mean anomaly
272.8263°
Eccentric anomaly
272.82066°
Mean motion
3.92408 °/min
Orbital period
91.74 mins
BSTAR
0.000018256
Loading maneuver chart data...
Computing Atmospheric mass density...
Loading historical data...
Loading historical data...
Loading historical data...
Loading historical data...
Loading historical data...
Loading historical data...
Loading historical data...

Documentation

Showing up to 5 results
|